Voltar ao catálogo

IRIDIUM 128

AtivoComunicaçõesPO
NORAD 42811·PAYLOAD·🇺🇸 United States

Lançado Jun 25, 2017 de Vandenberg Space Force Base

Loading…

Próximas Passagens (próximas 24 horas)

TLE

AtualizadoSource: CelesTrak SupGP

Época: Sep 14, 2026, 21:19 UTC

1 42811C 17039J   26257.88854167 -.00002480  00000+0 -88657-3 0  2574
2 42811  86.4026 347.6665 0002176  95.1563  43.4931 14.34220336    19

Acompanhe IRIDIUM 128 em tempo real com AllMySat

Download on the App Store